EW6281 Weather Reports


Display with metric or nautical units.
time (UTC)temp
F
wind
direction
speed
MPH
gust
MPH
rain 1hr
in
rain 24hr
in
rain mn
in
humidity
%
barometer
mb
20260505210055 49 34 2.0 7.0 0.00 0.00 0.00 79 1013.5
20260505204558 49 26 3.0 12.0 0.00 0.00 0.00 79 1013.5
20260505203054 49 40 3.0 14.0 0.00 0.00 0.00 78 1013.4
20260505201607 50 25 3.0 11.0 0.00 0.00 0.00 77 1013.3
20260505194602 51 30 2.0 10.0 0.00 0.00 0.00 74 1012.7
20260505193056 52 19 1.0 10.0 0.00 0.00 0.00 73 1012.5
20260505191555 52 35 1.0 10.0 0.00 0.00 0.00 72 1012.3
20260505190100 53 21 1.0 12.0 0.00 0.00 0.00 71 1012.1
20260505184557 53 33 4.0 13.0 0.00 0.00 0.00 71 1012.0
20260505183055 53 34 3.0 14.0 0.00 0.00 0.00 71 1011.9
20260505181554 53 25 3.0 9.0 0.00 0.00 0.00 72 1011.7
20260505174558 54 58 3.0 10.0 0.00 0.00 0.00 72 1011.8
20260505173056 55 28 3.0 11.0 0.00 0.00 0.00 73 1011.8
20260505171600 55 28 2.0 9.0 0.00 0.00 0.00 72 1011.7
20260505170100 56 9 2.0 8.0 0.00 0.00 0.00 71 1011.9
20260505164630 56 0 0.0 5.0 0.00 0.00 0.00 68 1011.9
20260505163053 56 23 1.0 8.0 0.00 0.00 0.00 67 1011.8
20260505161559 57 0 1.0 4.0 0.00 0.00 0.00 67 1011.9
20260505160108 57 0 1.0 8.0 0.00 0.00 0.00 67 1011.9
20260505153057 57 0 0.0 8.0 0.00 0.00 0.00 66 1012.0
20260505151611 58 20 1.0 10.0 0.00 0.00 0.00 65 1012.1
20260505140124 59 0 1.0 5.0 0.00 0.00 0.00 64 1012.2
20260505124604 59 93 0.0 3.0 0.00 0.00 0.00 64 1012.4
20260505123057 59 0 3.0 9.0 0.00 0.00 0.00 63 1012.5
20260505121600 58 0 1.0 10.0 0.00 0.00 0.00 65 1012.6
20260505120113 58 309 1.0 5.0 0.00 0.00 0.00 65 1012.5
20260505114557 57 26 2.0 9.0 0.00 0.00 0.00 68 1012.7
20260505113057 57 0 1.0 6.0 0.00 0.00 0.00 69 1012.8
20260505111554 57 13 2.0 8.0 0.00 0.00 0.00 71 1012.9
20260505110106 56 329 1.0 5.0 0.00 0.00 0.00 73 1013.1
20260505101556 55 27 2.0 7.0 0.00 0.00 0.00 76 1013.2
20260505100053 55 5 1.0 8.0 0.00 0.00 0.00 78 1013.2
20260505094553 55 53 2.0 9.0 0.00 0.00 0.00 76 1013.3
20260505093051 55 0 0.0 4.0 0.00 0.00 0.00 76 1013.4
20260505091605 54 16 1.0 7.0 0.00 0.00 0.00 78 1013.5
20260505090055 54 24 1.0 7.0 0.00 0.00 0.00 80 1013.3
20260505084555 53 5 1.0 4.0 0.00 0.00 0.00 82 1013.5
20260505083053 52 14 1.0 8.0 0.00 0.00 0.00 83 1013.5
20260505081555 52 86 0.0 5.0 0.00 0.00 0.00 84 1013.5
20260505080104 51 10 2.0 5.0 0.00 0.00 0.00 87 1013.6
20260505074552 50 0 0.0 8.0 0.00 0.00 0.00 89 1013.5
20260505073055 50 5 0.0 9.0 0.00 0.00 0.00 90 1013.6
20260505071555 50 0 0.0 4.0 0.00 0.00 0.00 91 1013.5
20260505070057 49 0 0.0 3.0 0.00 0.00 0.00 91 1013.4
20260505064554 48 0 1.0 5.0 0.00 0.00 0.00 91 1013.4
20260505063112 48 0 0.0 3.0 0.00 0.00 0.00 91 1013.6
20260505061601 48 0 0.0 1.0 0.00 0.00 0.00 91 1013.6
20260505060056 48 0 0.0 2.0 0.00 0.00 0.00 91 1013.6
20260505054609 48 0 0.0 1.0 0.00 0.00 0.00 91 1013.7
20260505053101 47 0 0.0 0.0 0.00 0.00 0.00 90 1013.8
20260505051554 47 0 0.0 0.0 0.00 0.00 0.00 90 1013.8
20260505041559 47 0 0.0 0.0 0.00 0.00 0.00 90 1013.7
20260505040057 47 0 0.0 0.0 0.00 0.00 0.00 90 1013.7
20260505034554 47 0 0.0 0.0 0.00 0.00 0.00 90 1013.5
20260505033052 47 0 0.0 0.0 0.00 0.00 0.00 90 1013.7
20260505031603 46 0 0.0 0.0 0.00 0.00 0.00 89 1013.9
20260505030054 46 0 0.0 0.0 0.00 0.00 0.00 89 1013.7
20260505024603 47 0 0.0 0.0 0.00 0.00 0.00 89 1013.7
20260505023054 47 0 0.0 0.0 0.00 0.00 0.00 89 1013.7
20260505021555 47 0 0.0 0.0 0.00 0.00 0.00 89 1013.9
20260505020054 47 0 0.0 0.0 0.00 0.00 0.00 89 1014.0
20260505014607 48 0 0.0 0.0 0.00 0.01 0.00 88 1014.2
20260505013055 48 0 0.0 0.0 0.00 0.01 0.00 88 1014.3
20260505011605 49 0 0.0 0.0 0.00 0.01 0.00 88 1014.2
20260505010054 49 0 0.0 1.0 0.00 0.01 0.00 88 1014.2
20260505004555 49 0 0.0 1.0 0.00 0.04 0.00 88 1014.4
20260505003055 49 0 0.0 3.0 0.00 0.04 0.00 88 1014.6
20260505001559 49 0 0.0 1.0 0.00 0.04 0.00 88 1014.7
20260505000107 49 0 0.0 1.0 0.00 0.04 0.00 87 1014.9
20260504234552 50 0 0.0 1.0 0.00 0.14 0.00 87 1015.0
20260504233107 50 0 0.0 1.0 0.00 0.14 0.00 87 1014.9
20260504231612 50 0 0.0 3.0 0.00 0.14 0.00 87 1014.8
20260504230056 50 19 1.0 3.0 0.00 0.14 0.00 87 1014.9
20260504224602 50 0 0.0 4.0 0.00 0.14 0.14 86 1015.0
20260504223119 50 0 0.0 3.0 0.00 0.14 0.14 86 1015.2
20260504221552 50 0 0.0 4.0 0.00 0.14 0.14 85 1015.2
20260504220059 51 0 0.0 4.0 0.00 0.14 0.14 85 1015.1
20260504214555 51 14 1.0 4.0 0.00 0.14 0.14 85 1015.3
20260504213104 51 0 0.0 4.0 0.00 0.14 0.14 85 1015.3
20260504211553 51 17 1.0 8.0 0.00 0.14 0.14 85 1015.2